Voltar ao catálogo

STARLINK-4320

AtivoComunicaçõesSSO
NORAD 53059·PAYLOAD·🇺🇸 United States

Lançado Jul 11, 2022 de Vandenberg Space Force Base

Loading…

Próximas Passagens (próximas 24 horas)

TLE

AtualizadoSource: CelesTrak SupGP

Época: Sep 15, 2026, 01:14 UTC

1 53059C 22077S   26258.05187500 -.00050194  00000+0 -15580-2 0  2588
2 53059  97.2859  72.9849 0001246  94.7348 122.3941 15.33467031    17

Acompanhe STARLINK-4320 em tempo real com AllMySat

Download on the App Store